TimeCET,TemperatureF,Dew PointF,Humidity,Sea Level PressureIn,VisibilityMPH,Wind Direction,Wind SpeedMPH,Gust SpeedMPH,PrecipitationIn,Events,Conditions,WindDirDegrees,DateUTC
12:20 AM,60.8,55.4,82,29.80,6.2,North,6.9,-,N/A,,Mostly Cloudy,10,2012-11-19 23:20:00
12:50 AM,60.8,55.4,82,29.80,6.2,North,6.9,-,N/A,,Mostly Cloudy,10,2012-11-19 23:50:00
1:20 AM,60.8,55.4,82,29.80,6.2,North,6.9,-,N/A,,Mostly Cloudy,360,2012-11-20 00:20:00
1:50 AM,60.8,55.4,82,29.80,6.2,NNE,8.1,-,N/A,,Mostly Cloudy,20,2012-11-20 00:50:00
2:20 AM,59.0,55.4,88,29.80,6.2,NNE,8.1,-,N/A,,Light Drizzle,20,2012-11-20 01:20:00
2:50 AM,59.0,55.4,88,29.80,6.2,North,5.8,-,N/A,,Light Drizzle,360,2012-11-20 01:50:00
3:20 AM,59.0,55.4,88,29.80,6.2,North,6.9,-,N/A,Rain,Light Rain,10,2012-11-20 02:20:00
3:50 AM,59.0,55.4,88,29.80,6.2,NNE,6.9,-,N/A,Rain,Light Rain,20,2012-11-20 02:50:00
4:20 AM,59.0,55.4,88,29.80,6.2,NNE,8.1,-,N/A,Rain,Light Rain,20,2012-11-20 03:20:00
4:50 AM,59.0,55.4,88,29.80,6.2,NNE,9.2,-,N/A,Rain,Light Rain,30,2012-11-20 03:50:00
5:50 AM,59.0,55.4,88,29.80,6.2,NNE,5.8,-,N/A,Rain,Light Rain,20,2012-11-20 04:50:00
6:20 AM,59.0,55.4,88,29.80,6.2,NNE,6.9,-,N/A,Rain,Light Rain,30,2012-11-20 05:20:00
6:50 AM,59.0,55.4,88,29.83,6.2,North,4.6,-,N/A,Rain,Light Rain,10,2012-11-20 05:50:00
7:20 AM,57.2,55.4,94,29.83,6.2,North,5.8,-,N/A,Rain,Light Rain,350,2012-11-20 06:20:00
7:50 AM,59.0,55.4,88,29.83,6.2,North,6.9,-,N/A,Rain,Light Rain,10,2012-11-20 06:50:00
8:20 AM,59.0,55.4,88,29.86,6.2,North,5.8,-,N/A,Rain,Light Rain,360,2012-11-20 07:20:00
8:50 AM,59.0,55.4,88,29.86,6.2,North,5.8,-,N/A,Rain,Light Rain,360,2012-11-20 07:50:00
9:50 AM,60.8,57.2,88,29.86,6.2,North,4.6,-,N/A,,Drizzle,10,2012-11-20 08:50:00
10:20 AM,60.8,57.2,88,29.86,6.2,NNW,5.8,-,N/A,,Light Drizzle,330,2012-11-20 09:20:00
10:50 AM,60.8,57.2,88,29.86,6.2,North,5.8,-,N/A,Rain,Light Rain,350,2012-11-20 09:50:00
11:20 AM,60.8,57.2,88,29.86,6.2,North,6.9,-,N/A,Rain,Light Rain,350,2012-11-20 10:20:00
11:50 AM,60.8,57.2,88,29.86,6.2,NNW,5.8,-,N/A,Rain,Light Rain,330,2012-11-20 10:50:00
12:20 PM,60.8,57.2,88,29.86,6.2,North,6.9,-,N/A,Rain,Light Rain,350,2012-11-20 11:20:00
12:50 PM,60.8,57.2,88,29.86,6.2,North,4.6,-,N/A,Rain,Light Rain,360,2012-11-20 11:50:00
1:20 PM,62.6,57.2,82,29.86,6.2,North,5.8,-,N/A,,Light Drizzle,360,2012-11-20 12:20:00
1:50 PM,62.6,57.2,82,29.86,6.2,North,6.9,-,N/A,,Light Drizzle,350,2012-11-20 12:50:00
2:20 PM,62.6,57.2,82,29.86,6.2,North,5.8,-,N/A,,Mostly Cloudy,360,2012-11-20 13:20:00
2:50 PM,62.6,57.2,82,29.86,6.2,North,5.8,-,N/A,,Mostly Cloudy,360,2012-11-20 13:50:00
3:20 PM,62.6,57.2,82,29.86,6.2,North,4.6,-,N/A,,Mostly Cloudy,360,2012-11-20 14:20:00
3:50 PM,62.6,57.2,82,29.86,6.2,North,4.6,-,N/A,,Mostly Cloudy,10,2012-11-20 14:50:00
4:20 PM,60.8,55.4,82,29.86,6.2,NNW,2.3,-,N/A,,Mostly Cloudy,340,2012-11-20 15:20:00
4:50 PM,60.8,53.6,77,29.89,6.2,ENE,3.5,-,N/A,,Mostly Cloudy,60,2012-11-20 15:50:00
5:20 PM,60.8,51.8,72,29.89,6.2,ENE,3.5,-,N/A,,Mostly Cloudy,60,2012-11-20 16:20:00
5:50 PM,60.8,51.8,72,29.89,6.2,NNE,4.6,-,N/A,,Mostly Cloudy,30,2012-11-20 16:50:00
6:20 PM,60.8,51.8,72,29.89,6.2,NE,4.6,-,N/A,,Mostly Cloudy,50,2012-11-20 17:20:00
6:50 PM,60.8,51.8,72,29.92,6.2,NE,3.5,-,N/A,,Mostly Cloudy,40,2012-11-20 17:50:00
7:20 PM,60.8,51.8,72,29.92,6.2,NNE,4.6,-,N/A,,Mostly Cloudy,30,2012-11-20 18:20:00
7:50 PM,60.8,51.8,72,29.92,6.2,North,5.8,-,N/A,,Mostly Cloudy,10,2012-11-20 18:50:00
8:20 PM,59.0,53.6,82,29.92,6.2,NE,3.5,-,N/A,,Drizzle,40,2012-11-20 19:20:00
8:50 PM,59.0,53.6,82,29.92,6.2,NNE,4.6,-,N/A,,Drizzle,20,2012-11-20 19:50:00
9:20 PM,57.2,53.6,88,29.92,6.2,North,3.5,-,N/A,,Mostly Cloudy,350,2012-11-20 20:20:00
9:50 PM,59.0,53.6,82,29.95,6.2,North,4.6,-,N/A,Rain,Light Rain,350,2012-11-20 20:50:00
10:20 PM,59.0,53.6,82,29.95,6.2,NNE,5.8,-,N/A,,Mostly Cloudy,20,2012-11-20 21:20:00
10:50 PM,57.2,53.6,88,29.95,6.2,North,6.9,-,N/A,,Mostly Cloudy,360,2012-11-20 21:50:00
11:20 PM,57.2,53.6,88,29.95,6.2,NNE,8.1,-,N/A,,Mostly Cloudy,30,2012-11-20 22:20:00
11:50 PM,57.2,53.6,88,29.95,6.2,NNE,5.8,-,N/A,,Mostly Cloudy,20,2012-11-20 22:50:00